GW0795 Weather Reports


time (UTC)temp
C
wind
direction
speed
KPH
gust
KPH
rain 1hr
cm
rain 24hr
cm
rain mn
cm
humidity
%
barometer
mb
20260831122012 12 32 0.0 0.0 0.00 0.00 0.00 88 1014.3
20260831121529 12 38 0.0 0.0 0.00 0.00 0.00 88 1014.4
20260831121018 12 38 0.0 0.0 0.00 0.00 0.00 88 1014.3
20260831120516 12 352 0.0 3.2 0.00 0.00 0.00 88 1014.4
20260831120043 12 10 0.0 4.8 0.00 0.00 0.00 87 1014.5
20260831115518 13 10 0.0 4.8 0.00 0.00 0.00 87 1014.5
20260831115021 13 16 1.6 4.8 0.00 0.00 0.00 87 1014.5
20260831114531 13 352 0.0 4.8 0.00 0.00 0.00 87 1014.6
20260831114006 13 352 0.0 4.8 0.00 0.00 0.00 87 1014.6
20260831113509 13 9 0.0 3.2 0.00 0.00 0.00 86 1014.7
20260831113012 13 9 0.0 3.2 0.00 0.00 0.00 86 1014.7
20260831112509 13 5 1.6 3.2 0.00 0.00 0.00 86 1014.8
20260831112011 13 19 1.6 3.2 0.00 0.00 0.00 85 1014.9
20260831111518 13 352 0.0 6.4 0.00 0.00 0.00 85 1014.9
20260831111013 13 348 3.2 6.4 0.00 0.00 0.00 85 1014.9
20260831110512 13 35 1.6 6.4 0.00 0.00 0.00 85 1015.0
20260831110024 13 17 0.0 8.0 0.00 0.00 0.00 84 1015.0
20260831105513 13 31 0.0 8.0 0.00 0.00 0.00 84 1015.0
20260831105013 13 352 0.0 3.2 0.00 0.00 0.00 84 1015.1
20260831104537 13 345 0.0 4.8 0.00 0.00 0.00 83 1015.1
20260831104014 13 19 1.6 4.8 0.00 0.00 0.00 83 1015.1
20260831103513 13 15 0.0 3.2 0.00 0.00 0.00 83 1015.1
20260831103026 13 49 1.6 3.2 0.00 0.00 0.00 82 1015.1
20260831102506 13 54 1.6 3.2 0.00 0.00 0.00 82 1015.1
20260831102011 13 49 0.0 4.8 0.00 0.00 0.00 81 1015.2
20260831101522 13 57 1.6 4.8 0.00 0.00 0.00 81 1015.3
20260831101010 13 19 0.0 3.2 0.00 0.00 0.00 81 1015.3
20260831100513 13 18 1.6 3.2 0.00 0.00 0.00 80 1015.3
20260831100026 13 32 1.6 3.2 0.00 0.00 0.00 80 1015.4
20260831095514 13 44 0.0 6.4 0.00 0.00 0.00 79 1015.3
20260831095014 14 30 1.6 6.4 0.00 0.00 0.00 79 1015.4
20260831094530 14 11 0.0 12.9 0.00 0.00 0.00 79 1015.4
20260831094017 14 22 4.8 12.9 0.00 0.00 0.00 78 1015.5
20260831093516 14 5 1.6 9.7 0.00 0.00 0.00 78 1015.7
20260831093030 14 16 1.6 6.4 0.00 0.00 0.00 78 1015.8
20260831092514 14 21 1.6 6.4 0.00 0.00 0.00 78 1015.8
20260831092015 14 48 1.6 4.8 0.00 0.00 0.00 78 1015.9
20260831091529 14 36 0.0 3.2 0.00 0.00 0.00 78 1015.9
20260831091009 14 5 0.0 3.2 0.00 0.00 0.00 78 1016.0
20260831090510 14 5 0.0 3.2 0.00 0.00 0.00 78 1015.9
20260831090021 14 352 1.6 6.4 0.00 0.00 0.00 77 1015.9
20260831085514 14 67 1.6 6.4 0.00 0.00 0.00 78 1015.9
20260831085016 14 44 1.6 4.8 0.00 0.00 0.00 77 1016.0
20260831084523 14 65 1.6 6.4 0.00 0.00 0.00 78 1016.0
20260831084015 14 11 3.2 6.4 0.00 0.00 0.00 78 1016.0
20260831083514 14 350 3.2 6.4 0.00 0.00 0.00 78 1016.0
20260831083030 14 5 0.0 4.8 0.00 0.00 0.00 78 1016.0
20260831082504 14 29 1.6 4.8 0.00 0.00 0.00 78 1016.1
20260831082006 14 56 0.0 4.8 0.00 0.00 0.00 77 1016.2
20260831081515 14 17 0.0 4.8 0.00 0.00 0.00 78 1016.2
20260831081006 14 32 0.0 4.8 0.00 0.00 0.00 77 1016.1
20260831080509 14 360 0.0 3.2 0.00 0.00 0.00 77 1016.2
20260831080015 14 360 0.0 3.2 0.00 0.00 0.00 77 1016.3
20260831075510 14 9 0.0 0.0 0.00 0.00 0.00 77 1016.3
20260831075010 14 348 0.0 3.2 0.00 0.00 0.00 77 1016.4
20260831074521 14 348 0.0 3.2 0.00 0.00 0.00 77 1016.4
20260831074005 14 346 1.6 3.2 0.00 0.00 0.00 76 1016.4
20260831073504 15 346 0.0 3.2 0.00 0.00 0.00 76 1016.5
20260831073005 15 336 0.0 3.2 0.00 0.00 0.00 76 1016.5
20260831072503 15 9 0.0 0.0 0.00 0.00 0.00 76 1016.6
20260831072004 15 20 0.0 0.0 0.00 0.00 0.00 76 1016.6
20260831071507 15 20 0.0 0.0 0.00 0.00 0.00 76 1016.5
20260831071006 15 20 0.0 3.2 0.00 0.00 0.00 75 1016.6
20260831070506 15 352 0.0 3.2 0.00 0.00 0.00 75 1016.6
20260831070022 15 5 0.0 1.6 0.00 0.00 0.00 75 1016.7
20260831065511 15 5 0.0 3.2 0.00 0.00 0.00 75 1016.8
20260831065010 15 9 0.0 3.2 0.00 0.00 0.00 75 1016.8
20260831064518 15 5 0.0 3.2 0.00 0.00 0.00 75 1016.8
20260831064017 15 352 0.0 3.2 0.00 0.00 0.00 74 1016.8
20260831063516 15 352 0.0 3.2 0.00 0.00 0.00 74 1016.9
20260831063027 15 352 0.0 3.2 0.00 0.00 0.00 73 1017.0
20260831062517 15 352 0.0 3.2 0.00 0.00 0.00 73 1017.1
20260831062004 15 352 0.0 3.2 0.00 0.00 0.00 72 1017.1
20260831061508 15 36 0.0 3.2 0.00 0.00 0.00 72 1017.2
20260831061007 15 17 0.0 3.2 0.00 0.00 0.00 71 1017.2
20260831060510 16 42 0.0 3.2 0.00 0.00 0.00 71 1017.1
20260831060015 16 42 0.0 3.2 0.00 0.00 0.00 70 1017.1
20260831055506 16 59 0.0 3.2 0.00 0.00 0.00 70 1017.1
20260831055013 16 51 0.0 3.2 0.00 0.00 0.00 70 1017.2
20260831054517 16 42 0.0 3.2 0.00 0.00 0.00 70 1017.2
20260831054010 16 42 0.0 3.2 0.00 0.00 0.00 69 1017.3
20260831053515 16 22 1.6 3.2 0.00 0.00 0.00 69 1017.5
20260831053027 16 79 0.0 4.8 0.00 0.00 0.00 68 1017.5
20260831052515 16 61 1.6 4.8 0.00 0.00 0.00 68 1017.6
20260831052016 16 348 1.6 4.8 0.00 0.00 0.00 67 1017.6
20260831051545 16 15 0.0 8.0 0.00 0.00 0.00 67 1017.6
20260831051014 16 40 1.6 8.0 0.00 0.00 0.00 67 1017.6
20260831050503 16 53 3.2 6.4 0.00 0.00 0.00 66 1017.7
20260831050008 16 11 0.0 8.0 0.00 0.00 0.00 66 1017.7
20260831045507 16 352 3.2 8.0 0.00 0.00 0.00 66 1017.7
20260831045006 16 360 3.2 4.8 0.00 0.00 0.00 66 1017.8
20260831044515 16 16 0.0 3.2 0.00 0.00 0.00 66 1017.8
20260831044009 16 42 0.0 4.8 0.00 0.00 0.00 66 1017.8
20260831043510 16 42 0.0 4.8 0.00 0.00 0.00 66 1017.9
20260831043024 16 49 0.0 0.0 0.00 0.00 0.00 65 1017.8
20260831042512 16 49 0.0 3.2 0.00 0.00 0.00 65 1017.9
20260831042012 16 49 0.0 3.2 0.00 0.00 0.00 64 1017.9
20260831041533 16 33 0.0 3.2 0.00 0.00 0.00 64 1017.9
20260831041014 17 352 1.6 3.2 0.00 0.00 0.00 63 1017.8
20260831040516 17 342 1.6 3.2 0.00 0.00 0.00 62 1017.8
20260831040042 17 5 1.6 3.2 0.00 0.00 0.00 62 1017.8
20260831035514 17 5 0.0 3.2 0.00 0.00 0.00 62 1017.8
20260831035008 17 5 1.6 4.8 0.00 0.00 0.00 61 1017.8
20260831034513 17 350 1.6 4.8 0.00 0.00 0.00 61 1017.8
20260831034008 17 24 0.0 4.8 0.00 0.00 0.00 60 1017.8
20260831033509 17 352 1.6 4.8 0.00 0.00 0.00 60 1017.8
20260831033016 17 23 1.6 4.8 0.00 0.00 0.00 61 1017.8
20260831032513 17 333 0.0 0.0 0.00 0.00 0.00 61 1017.7
20260831032012 17 320 0.0 3.2 0.00 0.00 0.00 60 1017.7
20260831031525 17 9 0.0 3.2 0.00 0.00 0.00 60 1017.8
20260831031017 17 9 0.0 1.6 0.00 0.00 0.00 59 1017.7
20260831030516 17 9 0.0 3.2 0.00 0.00 0.00 59 1017.8
20260831030030 18 9 0.0 3.2 0.00 0.00 0.00 59 1017.7
20260831025515 18 352 0.0 3.2 0.00 0.00 0.00 59 1017.8
20260831025015 18 352 0.0 3.2 0.00 0.00 0.00 59 1017.8
20260831024530 18 321 0.0 0.0 0.00 0.00 0.00 58 1017.8
20260831024022 18 336 0.0 1.6 0.00 0.00 0.00 58 1017.8
20260831023508 18 300 0.0 1.6 0.00 0.00 0.00 58 1017.9
20260831023023 18 9 0.0 3.2 0.00 0.00 0.00 58 1017.9
20260831022515 18 9 0.0 3.2 0.00 0.00 0.00 57 1017.8
20260831022011 18 22 0.0 3.2 0.00 0.00 0.00 56 1017.8
20260831021544 18 352 0.0 3.2 0.00 0.00 0.00 56 1018.0
20260831021013 18 301 0.0 4.8 0.00 0.00 0.00 56 1018.0
20260831020513 18 270 1.6 4.8 0.00 0.00 0.00 55 1018.0
20260831020025 19 335 1.6 6.4 0.00 0.00 0.00 54 1018.0
20260831015519 19 5 1.6 6.4 0.00 0.00 0.00 54 1018.0
20260831015017 19 311 3.2 8.0 0.00 0.00 0.00 53 1018.0
20260831014530 19 9 3.2 8.0 0.00 0.00 0.00 53 1018.1
20260831014016 19 5 1.6 4.8 0.00 0.00 0.00 51 1018.1
20260831013516 19 344 1.6 4.8 0.00 0.00 0.00 51 1018.2
20260831013030 20 319 1.6 4.8 0.00 0.00 0.00 51 1018.2
20260831012518 20 279 0.0 4.8 0.00 0.00 0.00 53 1018.2
20260831012009 20 281 1.6 4.8 0.00 0.00 0.00 52 1018.3
20260831011517 20 265 0.0 3.2 0.00 0.00 0.00 51 1018.3
20260831011012 20 259 0.0 4.8 0.00 0.00 0.00 51 1018.3
20260831010512 20 338 1.6 4.8 0.00 0.00 0.00 51 1018.3
20260831010041 20 290 0.0 4.8 0.00 0.00 0.00 50 1018.4
20260831005504 20 275 1.6 4.8 0.00 0.00 0.00 50 1018.4
20260831005004 20 306 1.6 6.4 0.00 0.00 0.00 51 1018.4
20260831004506 20 5 1.6 6.4 0.00 0.00 0.00 50 1018.4
20260831004009 20 268 1.6 9.7 0.00 0.00 0.00 49 1018.5
20260831003504 20 265 4.8 9.7 0.00 0.00 0.00 49 1018.6
20260831003009 20 310 3.2 9.7 0.00 0.00 0.00 49 1018.6
20260831002507 20 302 3.2 12.9 0.00 0.00 0.00 48 1018.6
20260831002012 20 247 4.8 12.9 0.00 0.00 0.00 49 1018.6
20260831001529 20 336 1.6 12.9 0.00 0.00 0.00 51 1018.6
20260831001009 20 317 3.2 12.9 0.00 0.00 0.00 51 1018.7
20260831000511 20 343 3.2 12.9 0.00 0.00 0.00 51 1018.7
20260831000021 20 321 3.2 12.9 0.00 0.00 0.00 51 1018.8
20260830235512 20 312 6.4 12.9 0.00 0.00 0.00 49 1018.8
20260830235003 20 292 3.2 11.3 0.00 0.00 0.00 48 1018.9
20260830234504 21 306 1.6 12.9 0.00 0.00 0.00 48 1018.9
20260830234007 21 286 3.2 12.9 0.00 0.00 0.00 48 1019.1
20260830233505 21 176 3.2 6.4 0.00 0.00 0.00 46 1019.1
20260830233007 21 328 0.0 6.4 0.00 0.00 0.00 47 1019.1
20260830232505 20 292 1.6 9.7 0.00 0.00 0.00 50 1019.1
20260830232009 20 290 4.8 9.7 0.00 0.00 0.00 49 1019.1
20260830231526 20 331 4.8 9.7 0.00 0.00 0.00 51 1019.2
20260830231008 20 290 3.2 9.7 0.00 0.00 0.00 51 1019.2
20260830230512 20 250 3.2 9.7 0.00 0.00 0.00 51 1019.2
20260830230018 21 184 1.6 11.3 0.00 0.00 0.00 53 1019.1
20260830225511 20 127 1.6 11.3 0.00 0.00 0.00 53 1019.2
20260830225013 20 294 3.2 9.7 0.00 0.00 0.00 53 1019.2
20260830224524 20 273 3.2 9.7 0.00 0.00 0.00 54 1019.3
20260830224012 20 286 1.6 9.7 0.00 0.00 0.00 55 1019.3
20260830223504 20 289 4.8 9.7 0.00 0.00 0.00 54 1019.4
20260830223012 21 284 3.2 9.7 0.00 0.00 0.00 53 1019.5
20260830222504 20 302 3.2 9.7 0.00 0.00 0.00 53 1019.5
20260830222008 20 176 1.6 6.4 0.00 0.00 0.00 55 1019.6
20260830221512 20 281 4.8 9.7 0.00 0.00 0.00 52 1019.7
20260830221010 20 208 3.2 11.3 0.00 0.00 0.00 54 1019.6
20260830220508 20 242 1.6 11.3 0.00 0.00 0.00 55 1019.6
20260830220022 20 182 4.8 11.3 0.00 0.00 0.00 53 1019.6
20260830215510 20 215 3.2 11.3 0.00 0.00 0.00 55 1019.6
20260830215013 20 134 4.8 11.3 0.00 0.00 0.00 53 1019.6
20260830214528 20 158 6.4 11.3 0.00 0.00 0.00 54 1019.6
20260830214012 20 311 1.6 9.7 0.00 0.00 0.00 53 1019.8
20260830213517 20 213 3.2 12.9 0.00 0.00 0.00 56 1019.8
20260830213028 19 151 4.8 12.9 0.00 0.00 0.00 56 1019.9
20260830212516 19 92 4.8 9.7 0.00 0.00 0.00 55 1019.9
20260830212004 19 205 3.2 9.7 0.00 0.00 0.00 57 1020.0
20260830211517 19 126 3.2 9.7 0.00 0.00 0.00 57 1020.0
20260830211008 20 184 3.2 8.0 0.00 0.00 0.00 56 1020.1
20260830210508 20 193 1.6 11.3 0.00 0.00 0.00 57 1020.1
20260830210014 19 140 4.8 11.3 0.00 0.00 0.00 60 1020.1
20260830205513 19 59 1.6 11.3 0.00 0.00 0.00 60 1020.2
20260830205008 18 155 4.8 12.9 0.00 0.00 0.00 60 1020.2
20260830204519 19 207 3.2 12.9 0.00 0.00 0.00 61 1020.2
20260830204012 20 134 3.2 8.0 0.00 0.00 0.00 60 1020.3
20260830203512 20 258 0.0 6.4 0.00 0.00 0.00 58 1020.3
20260830203024 19 198 3.2 9.7 0.00 0.00 0.00 62 1020.3
20260830202517 18 132 4.8 9.7 0.00 0.00 0.00 62 1020.3
20260830202016 18 204 4.8 9.7 0.00 0.00 0.00 61 1020.4
20260830201529 18 308 3.2 9.7 0.00 0.00 0.00 63 1020.5
20260830201018 18 159 1.6 8.0 0.00 0.00 0.00 64 1020.5
20260830200507 18 184 3.2 8.0 0.00 0.00 0.00 63 1020.5
20260830200010 18 213 1.6 11.3 0.00 0.00 0.00 65 1020.4
20260830195508 17 141 6.4 12.9 0.00 0.00 0.00 65 1020.5
20260830195012 18 205 6.4 12.9 0.00 0.00 0.00 63 1020.6
20260830194518 18 263 1.6 8.0 0.00 0.00 0.00 64 1020.6
20260830194011 18 147 4.8 8.0 0.00 0.00 0.00 64 1020.6
20260830193513 18 167 3.2 9.7 0.00 0.00 0.00 63 1020.7
20260830193024 18 254 4.8 9.7 0.00 0.00 0.00 65 1020.7
20260830192512 19 201 1.6 6.4 0.00 0.00 0.00 63 1020.7
20260830192016 18 261 1.6 6.4 0.00 0.00 0.00 62 1020.7
20260830191526 18 303 1.6 6.4 0.00 0.00 0.00 64 1020.7
20260830191018 19 215 1.6 6.4 0.00 0.00 0.00 62 1020.7
20260830190516 18 300 3.2 6.4 0.00 0.00 0.00 65 1020.7
20260830190033 18 215 0.0 9.7 0.00 0.00 0.00 65 1020.8
20260830185507 17 161 3.2 9.7 0.00 0.00 0.00 66 1020.8
20260830185008 17 240 3.2 6.4 0.00 0.00 0.00 66 1020.8
20260830184517 18 188 1.6 6.4 0.00 0.00 0.00 65 1020.9
20260830184009 17 235 1.6 11.3 0.00 0.00 0.00 67 1020.8
20260830183512 17 192 4.8 12.9 0.00 0.00 0.00 71 1020.9
20260830183020 16 164 8.0 12.9 0.00 0.00 0.00 67 1020.8
20260830182512 17 30 1.6 4.8 0.00 0.00 0.00 68 1020.8
20260830182014 17 200 1.6 4.8 0.00 0.00 0.00 67 1020.8
20260830181536 17 229 1.6 6.4 0.00 0.00 0.00 68 1020.9
20260830181015 17 175 1.6 8.0 0.00 0.00 0.00 67 1020.9
20260830180516 16 181 3.2 8.0 0.00 0.00 0.00 71 1020.9
20260830180049 16 280 3.2 8.0 0.00 0.00 0.00 71 1020.9
20260830175516 16 128 3.2 8.0 0.00 0.00 0.00 68 1020.9
20260830175017 16 148 3.2 6.4 0.00 0.00 0.00 71 1020.9
20260830174536 16 229 1.6 6.4 0.00 0.00 0.00 70 1020.9
20260830174010 16 43 1.6 4.8 0.00 0.00 0.00 72 1020.9
20260830173509 15 140 1.6 9.7 0.00 0.00 0.00 73 1021.0
20260830173025 15 153 4.8 9.7 0.00 0.00 0.00 74 1020.9
20260830172511 15 175 1.6 6.4 0.00 0.00 0.00 74 1020.9
20260830172012 15 140 1.6 4.8 0.00 0.00 0.00 73 1020.8
20260830171529 16 269 1.6 4.8 0.00 0.00 0.00 71 1020.8
20260830171018 16 130 1.6 4.8 0.00 0.00 0.00 72 1020.8
20260830170514 16 205 1.6 6.4 0.00 0.00 0.00 72 1020.8
20260830170028 16 209 1.6 6.4 0.00 0.00 0.00 72 1020.7
20260830165514 15 272 3.2 4.8 0.00 0.00 0.00 74 1020.7
20260830165015 15 117 1.6 4.8 0.00 0.00 0.00 75 1020.7
20260830164533 14 211 0.0 8.0 0.00 0.00 0.00 77 1020.8
20260830164014 14 173 1.6 8.0 0.00 0.00 0.00 78 1020.7
20260830163524 14 185 4.8 6.4 0.00 0.00 0.00 76 1020.7
20260830163030 14 238 1.6 4.8 0.00 0.00 0.00 77 1020.8
20260830162516 14 207 1.6 4.8 0.00 0.00 0.00 77 1020.8
20260830162012 14 329 0.0 8.0 0.00 0.00 0.00 77 1020.8
20260830161523 14 188 0.0 8.0 0.00 0.00 0.00 78 1020.8
20260830161014 14 197 3.2 6.4 0.00 0.00 0.00 78 1020.9
20260830160515 14 209 0.0 4.8 0.00 0.00 0.00 78 1021.0
20260830160032 13 196 1.6 4.8 0.00 0.00 0.00 79 1020.9
20260830155507 13 208 1.6 4.8 0.00 0.00 0.00 79 1020.8
20260830155003 13 196 0.0 4.8 0.00 0.00 0.00 78 1020.8
20260830154511 13 211 1.6 8.0 0.00 0.00 0.00 78 1020.8
20260830154006 13 181 3.2 8.0 0.00 0.00 0.00 78 1020.8
20260830153509 13 148 3.2 8.0 0.00 0.00 0.00 78 1020.8
20260830153016 13 157 1.6 6.4 0.00 0.00 0.00 79 1020.7
20260830152513 13 169 0.0 4.8 0.00 0.00 0.00 79 1020.7
20260830152011 13 155 1.6 4.8 0.00 0.00 0.00 79 1020.7
20260830151521 13 119 0.0 4.8 0.00 0.00 0.00 79 1020.6
20260830151011 13 144 1.6 8.0 0.00 0.00 0.00 79 1020.7
20260830150513 13 210 3.2 8.0 0.00 0.00 0.00 79 1020.7
20260830150025 13 113 0.0 6.4 0.00 0.00 0.00 80 1020.7
20260830145516 13 113 1.6 6.4 0.00 0.00 0.00 80 1020.7
20260830145004 13 148 1.6 6.4 0.00 0.00 0.00 80 1020.7
20260830144510 13 181 0.0 8.0 0.00 0.00 0.00 80 1020.7
20260830144004 13 154 1.6 8.0 0.00 0.00 0.00 80 1020.7
20260830143508 12 171 0.0 0.0 0.00 0.00 0.00 81 1020.7
20260830143012 12 160 0.0 0.0 0.00 0.00 0.00 82 1020.6
20260830142507 12 180 0.0 3.2 0.00 0.00 0.00 81 1020.6
20260830142010 12 161 0.0 3.2 0.00 0.08 0.00 81 1020.5
20260830141518 12 146 0.0 3.2 0.00 0.18 0.00 82 1020.4
20260830141012 12 146 0.0 3.2 0.00 0.36 0.00 83 1020.4
20260830140512 12 187 0.0 0.0 0.00 0.53 0.00 83 1020.4
20260830140026 12 217 0.0 0.0 0.00 0.76 0.00 83 1020.3
20260830135512 12 210 0.0 0.0 0.00 0.79 0.00 84 1020.3
20260830135014 12 210 0.0 0.0 0.00 0.81 0.00 84 1020.3
20260830134539 12 210 0.0 0.0 0.00 0.86 0.00 84 1020.3
20260830134014 12 210 0.0 0.0 0.00 0.97 0.00 84 1020.3
20260830133504 12 216 0.0 0.0 0.00 1.14 0.00 84 1020.3
20260830133010 12 165 0.0 0.0 0.00 1.37 0.00 84 1020.3
20260830132507 12 165 0.0 0.0 0.00 1.40 0.00 83 1020.3
20260830132013 12 150 0.0 0.0 0.00 1.42 0.00 83 1020.3
20260830131518 12 150 0.0 0.0 0.00 1.55 0.00 83 1020.3
20260830131011 12 150 0.0 0.0 0.00 1.57 0.00 83 1020.3
20260830130514 12 145 0.0 0.0 0.00 1.57 0.00 83 1020.3
20260830130021 12 136 0.0 0.0 0.00 1.60 0.00 83 1020.3
20260830125512 12 109 0.0 0.0 0.00 1.60 0.00 83 1020.2
20260830125013 12 117 0.0 0.0 0.00 1.60 0.00 84 1020.2
20260830124527 12 117 0.0 0.0 0.00 1.60 0.00 84 1020.2
20260830124015 12 117 0.0 0.0 0.00 1.60 0.00 83 1020.3
20260830123515 12 105 0.0 0.0 0.00 1.60 0.00 83 1020.2
20260830123031 12 105 0.0 0.0 0.00 1.60 0.00 83 1020.3
20260830122515 12 118 0.0 0.0 0.00 1.60 0.00 83 1020.3